Change the Weather History Date:

Saturday, November 3, 2012

  Actual Average Record
Temperature  
Mean Temperature 64 °F -  
Max Temperature 84 °F 67 °F 84 °F (2000)
Min Temperature 46 °F 46 °F 28 °F (1996)
Growing Degree Days 14 (Base 50)    
Moisture  
Dew Point 53 °F    
Average Humidity 74    
Maximum Humidity 100    
Minimum Humidity 31    
Precipitation  
Precipitation 0.00 in - - ()
Sea Level Pressure  
Sea Level Pressure 30.04 in    
Wind  
Wind Speed 2 mph (SW)    
Max Wind Speed 14 mph    
Max Gust Speed 20 mph    
Visibility 10 miles    
Events      
Averages and records for this station are not official NWS values.
T = Trace of Precipitation, MM = Missing Value Source: NWS Daily Summary

Daily Weather History Graph

Daily Weather History Graph

Search for Another Location

Airport or City:

Trip Planner

Search our weather history database for the weather conditions in past years. The results will help you decide how hot, cold, wet, or windy it might be!

Date:

Astronomy

Nov. 03, 2012 Rise Set
Actual Time 7:14 AM CDT 5:59 PM CDT
Civil Twilight 6:49 AM CDT 6:25 PM CDT
Nautical Twilight 6:19 AM CDT 6:54 PM CDT
Astronomical Twilight 5:50 AM CDT 7:23 PM CDT
Moon 9:44 PM CDT (11/3) 11:14 AM CDT (11/3)
Length of Visible Light 11h 35m
Length of Day
10h 44m
Waning Gibbous, 80% of the Moon is Illuminated
Nov 3
Waning Gibbous
Nov 6
Last Quarter
Nov 13
New
Nov 20
First Quarter
Nov 28
Full

Hourly Weather History & Observations

Time (CDT) Temp. Heat Index Dew Point Humidity Pressure Visibility Wind Dir Wind Speed Gust Speed Precip Events Conditions
12:55 AM 51.1 °F - 50.7 °F 99% 30.02 in 10.0 mi Calm Calm - N/A   Clear
1:55 AM 50.5 °F - 50.2 °F 99% 30.02 in 10.0 mi Calm Calm - N/A   Clear
2:55 AM 50.4 °F - 50.4 °F 100% 30.02 in 10.0 mi Calm Calm - N/A   Clear
3:55 AM 48.6 °F - 48.2 °F 99% 30.02 in 10.0 mi Calm Calm - N/A   Clear
4:55 AM 49.1 °F - 48.6 °F 98% 30.04 in 10.0 mi Calm Calm - N/A   Clear
5:55 AM 48.6 °F - 48.2 °F 99% 30.05 in 10.0 mi Calm Calm - N/A   Clear
6:55 AM 46.8 °F - 46.6 °F 99% 30.07 in 10.0 mi Calm Calm - N/A   Clear
7:55 AM 48.6 °F - 48.2 °F 99% 30.09 in 10.0 mi Calm Calm - N/A   Clear
8:55 AM 56.1 °F - 53.2 °F 90% 30.11 in 10.0 mi Calm Calm - N/A   Clear
9:55 AM 67.1 °F - 58.3 °F 73% 30.11 in 10.0 mi Variable 3.5 mph - N/A   Clear
10:55 AM 73.0 °F - 60.1 °F 64% 30.10 in 10.0 mi Variable 5.8 mph - N/A   Clear
11:55 AM 77.5 °F - 59.9 °F 54% 30.08 in 10.0 mi Variable 6.9 mph - N/A   Clear
12:55 PM 81.1 °F 81.2 °F 57.0 °F 44% 30.06 in 10.0 mi SW 6.9 mph 18.4 mph N/A   Clear
1:55 PM 83.5 °F - 51.8 °F 33% 30.04 in 10.0 mi West 13.8 mph - N/A   Clear
2:55 PM 83.8 °F - 50.5 °F 31% 30.02 in 10.0 mi WSW 12.7 mph 19.6 mph N/A   Clear
3:55 PM 82.8 °F - 50.9 °F 33% 30.01 in 10.0 mi SW 13.8 mph 19.6 mph N/A   Clear
4:55 PM 81.0 °F - 52.0 °F 36% 29.99 in 10.0 mi SW 9.2 mph - N/A   Clear
5:55 PM 75.0 °F - 54.5 °F 49% 29.99 in 10.0 mi SW 4.6 mph - N/A   Clear
6:55 PM 64.4 °F - 54.3 °F 70% 29.99 in 10.0 mi Calm Calm - N/A   Clear
7:55 PM 62.6 °F - 54.3 °F 74% 30.00 in 10.0 mi SSW 3.5 mph - N/A   Clear
8:55 PM 58.8 °F - 53.2 °F 82% 30.02 in 10.0 mi Calm Calm - N/A   Clear
9:55 PM 57.0 °F - 54.1 °F 90% 30.04 in 10.0 mi Calm Calm - N/A   Clear
10:55 PM 57.2 °F - 54.0 °F 89% 30.04 in 10.0 mi South 3.5 mph - N/A   Mostly Cloudy
11:55 PM 63.1 °F - 55.4 °F 76% 30.05 in 10.0 mi WSW 4.6 mph - N/A   Clear